Jacksonville, IL

3:22 PM CST on December 09, 2019 (GMT -0600)
Jacksonville Municipal

Weather History for KIJX - November, 2019

Change the Weather History Date:

Friday, November 15, 2019

  Actual Average (KSPI) Record (KSPI)
Temperature  
Mean Temperature 30 °F -  
Max Temperature 45 °F 51 °F 78 °F (1955)
Min Temperature 16 °F 34 °F 11 °F (1940)
Degree Days  
Heating Degree Days 34    
Moisture  
Dew Point 23 °F    
Average Humidity 79    
Maximum Humidity 96    
Minimum Humidity 47    
Precipitation  
Precipitation 0.00 in - - ()
Sea Level Pressure  
Sea Level Pressure 30.38 in    
Wind  
Wind Speed 2 mph ()    
Max Wind Speed 9 mph    
Max Gust Speed -    
Visibility 8.0 miles    
Events      
Averages and records for this station are not official NWS values.
T = Trace of Precipitation, MM = Missing Value Source: Averaged Metar Reports

Daily Weather History Graph

Daily Weather History Graph

Search for Another Location

Airport or City:

Astronomy

Nov. 15, 2019 Rise Set
Actual Time 6:45 AM CST 4:45 PM CST
Civil Twilight 6:16 AM CST 5:14 PM CST
Nautical Twilight 5:43 AM CST 5:46 PM CST
Astronomical Twilight 5:11 AM CST 6:18 PM CST
Moon 7:21 PM CST (11/15) 9:41 AM CST (11/15)
Length of Visible Light 10h 57m
Length of Day
9h 59m
Waning Gibbous, 90% of the Moon is Illuminated
Nov 15
Waning Gibbous
Nov 19
Last Quarter
Nov 26
New
Dec 4
First Quarter
Dec 11
Full

Hourly Weather History & Observations

Time (CST) Temp. Windchill Dew Point Humidity Pressure Visibility Wind Dir Wind Speed Gust Speed Precip Events Conditions
12:15 AM 17.6 °F - 16.0 °F 93% 30.38 in 7.0 mi Calm Calm - N/A   Clear
12:35 AM 19.4 °F - 18.1 °F 95% 30.39 in 5.0 mi Calm Calm - N/A   Clear
1:15 AM 19.4 °F - 18.3 °F 96% 30.38 in 5.0 mi Calm Calm - N/A   Clear
1:35 AM 19.4 °F - 18.1 °F 95% 30.39 in 5.0 mi Calm Calm - N/A   Clear
1:55 AM 17.6 °F - 16.2 °F 94% 30.39 in 5.0 mi Calm Calm - N/A   Clear
2:15 AM 18.1 °F 11.3 °F 16.9 °F 95% 30.39 in 5.0 mi South 4.6 mph - N/A   Clear
2:35 AM 18.5 °F 13.3 °F 17.1 °F 94% 30.38 in 5.0 mi SSW 3.5 mph - N/A   Clear
2:55 AM 18.5 °F - 17.4 °F 96% 30.39 in 5.0 mi Calm Calm - N/A   Clear
3:10 AM 19.2 °F 14.1 °F 18.0 °F 95% 30.39 in 5.0 mi SW 3.5 mph - N/A   Clear
3:35 AM 18.5 °F 13.3 °F 17.2 °F 95% 30.39 in 4.0 mi SW 3.5 mph - N/A   Clear
3:55 AM 18.5 °F 13.3 °F 17.2 °F 95% 30.39 in 4.0 mi SW 3.5 mph - N/A   Clear
4:15 AM 18.7 °F 13.5 °F 17.2 °F 94% 30.39 in 4.0 mi WSW 3.5 mph - N/A   Clear
4:35 AM 17.6 °F 12.3 °F 16.2 °F 94% 30.39 in 4.0 mi WSW 3.5 mph - N/A   Clear
4:55 AM 18.0 °F - 16.7 °F 95% 30.39 in 4.0 mi Calm Calm - N/A   Clear
5:15 AM 17.4 °F 12.1 °F 16.0 °F 94% 30.39 in 4.0 mi SSW 3.5 mph - N/A   Clear
5:35 AM 17.8 °F 12.5 °F 16.5 °F 95% 30.39 in 4.0 mi SW 3.5 mph - N/A   Clear
5:55 AM 18.1 °F 12.9 °F 16.7 °F 94% 30.40 in 4.0 mi SSW 3.5 mph - N/A   Clear
6:15 AM 18.5 °F 13.3 °F 17.1 °F 94% 30.40 in 4.0 mi SW 3.5 mph - N/A   Clear
6:35 AM 18.0 °F - 16.7 °F 95% 30.40 in 5.0 mi Calm Calm - N/A   Clear
6:55 AM 16.9 °F - 15.1 °F 93% 30.40 in 4.0 mi Calm Calm - N/A   Clear
7:15 AM 17.4 °F - 15.8 °F 93% 30.41 in 4.0 mi Calm Calm - N/A   Clear
7:35 AM 19.2 °F - 17.6 °F 93% 30.41 in 4.0 mi Calm Calm - N/A   Clear
7:55 AM 21.9 °F - 20.7 °F 95% 30.41 in 4.0 mi Calm Calm - N/A   Clear
8:15 AM 25.0 °F 19.3 °F 23.4 °F 94% 30.42 in 5.0 mi SW 4.6 mph - N/A   Clear
8:35 AM 26.4 °F 18.9 °F 24.8 °F 94% 30.41 in 7.0 mi SSW 6.9 mph - N/A   Clear
8:55 AM 28.2 °F 21.0 °F 24.8 °F 87% 30.42 in 7.0 mi SW 6.9 mph - N/A   Clear
9:15 AM 29.5 °F 22.5 °F 25.9 °F 86% 30.42 in 7.0 mi SW 6.9 mph - N/A   Clear
9:35 AM 32.0 °F 27.5 °F 26.6 °F 80% 30.42 in 10.0 mi WSW 4.6 mph - N/A   Clear
9:55 AM 33.1 °F 26.9 °F 26.6 °F 77% 30.43 in 10.0 mi WSW 6.9 mph - N/A   Clear
10:15 AM 34.0 °F 28.8 °F 26.4 °F 74% 30.43 in 10.0 mi WSW 5.8 mph - N/A   Clear
10:35 AM 35.4 °F 29.0 °F 26.4 °F 70% 30.42 in 10.0 mi West 8.1 mph - N/A   Clear
10:55 AM 35.8 °F 28.8 °F 26.4 °F 69% 30.42 in 10.0 mi West 9.2 mph - N/A   Clear
11:15 AM 37.2 °F 31.9 °F 26.6 °F 65% 30.41 in 10.0 mi West 6.9 mph - N/A   Clear
11:35 AM 38.3 °F 33.2 °F 25.0 °F 59% 30.41 in 10.0 mi West 6.9 mph - N/A   Clear
11:55 AM 39.4 °F 34.5 °F 26.1 °F 59% 30.40 in 10.0 mi West 6.9 mph - N/A   Clear
12:35 PM 40.8 °F 35.6 °F 25.2 °F 54% 30.39 in 10.0 mi West 8.1 mph - N/A   Clear
12:55 PM 41.7 °F 39.8 °F 25.9 °F 53% 30.38 in 10.0 mi WSW 3.5 mph - N/A   Clear
1:15 PM 42.4 °F 38.1 °F 26.4 °F 53% 30.38 in 10.0 mi West 6.9 mph - N/A   Clear
1:35 PM 43.5 °F 40.1 °F 26.4 °F 51% 30.37 in 10.0 mi WSW 5.8 mph - N/A   Clear
1:55 PM 43.7 °F 40.3 °F 27.1 °F 52% 30.37 in 10.0 mi West 5.8 mph - N/A   Clear
2:15 PM 44.6 °F 41.4 °F 27.3 °F 51% 30.36 in 10.0 mi West 5.8 mph - N/A   Clear
2:35 PM 45.1 °F 42.8 °F 28.0 °F 51% 30.36 in 10.0 mi West 4.6 mph - N/A   Clear
2:55 PM 45.3 °F 43.0 °F 26.2 °F 47% 30.36 in 10.0 mi West 4.6 mph - N/A   Clear
3:15 PM 45.5 °F 43.2 °F 27.1 °F 49% 30.36 in 10.0 mi West 4.6 mph - N/A   Clear
3:35 PM 45.0 °F - 26.6 °F 49% 30.36 in 10.0 mi Calm Calm - N/A   Clear
3:55 PM 44.1 °F 42.5 °F 27.7 °F 53% 30.35 in 10.0 mi West 3.5 mph - N/A   Clear
4:15 PM 42.4 °F 40.7 °F 27.5 °F 56% 30.35 in 10.0 mi West 3.5 mph - N/A   Clear
4:35 PM 40.1 °F - 28.0 °F 62% 30.35 in 10.0 mi Calm Calm - N/A   Clear
4:55 PM 37.8 °F - 26.1 °F 63% 30.35 in 10.0 mi Calm Calm - N/A   Clear
5:15 PM 37.2 °F - 26.8 °F 66% 30.35 in 10.0 mi Calm Calm - N/A   Clear
5:35 PM 35.8 °F - 26.4 °F 69% 30.36 in 10.0 mi Calm Calm - N/A   Clear
5:55 PM 35.1 °F - 26.1 °F 70% 30.36 in 10.0 mi Calm Calm - N/A   Clear
6:15 PM 34.2 °F - 26.1 °F 72% 30.36 in 10.0 mi Calm Calm - N/A   Clear
6:35 PM 31.8 °F - 25.5 °F 78% 30.36 in 10.0 mi Calm Calm - N/A   Clear
6:55 PM 33.6 °F - 26.2 °F 74% 30.37 in 10.0 mi Calm Calm - N/A   Clear
7:15 PM 33.3 °F - 26.2 °F 75% 30.37 in 10.0 mi Calm Calm - N/A   Clear
7:35 PM 30.7 °F - 25.3 °F 80% 30.37 in 10.0 mi Calm Calm - N/A   Clear
7:55 PM 30.7 °F - 25.7 °F 82% 30.37 in 10.0 mi Calm Calm - N/A   Clear
8:15 PM 29.8 °F - 25.0 °F 82% 30.37 in 10.0 mi Calm Calm - N/A   Clear
8:35 PM 30.4 °F - 25.2 °F 81% 30.37 in 10.0 mi Calm Calm - N/A   Clear
8:55 PM 28.9 °F - 25.0 °F 85% 30.37 in 10.0 mi Calm Calm - N/A   Clear
9:15 PM 28.0 °F - 24.6 °F 87% 30.37 in 10.0 mi Calm Calm - N/A   Clear
9:35 PM 27.3 °F - 24.3 °F 88% 30.38 in 10.0 mi Calm Calm - N/A   Clear
9:55 PM 27.1 °F - 24.4 °F 90% 30.38 in 10.0 mi Calm Calm - N/A   Clear
10:35 PM 26.8 °F - 24.1 °F 90% 30.37 in 10.0 mi Calm Calm - N/A   Clear
10:55 PM 26.2 °F - 24.1 °F 92% 30.38 in 10.0 mi Calm Calm - N/A   Clear
11:15 PM 26.2 °F 20.7 °F 23.5 °F 90% 30.37 in 10.0 mi East 4.6 mph - N/A   Clear
11:35 PM 25.3 °F 18.5 °F 22.6 °F 89% 30.37 in 10.0 mi East 5.8 mph - N/A   Clear
11:55 PM 25.2 °F 20.9 °F 23.2 °F 92% 30.37 in 10.0 mi East 3.5 mph - N/A   Clear